| time (UTC) | temp C | wind direction | speed KPH | gust KPH | rain 1hr cm | rain 24hr cm | rain mn cm | humidity % | barometer mb |
| 20260507135159 | 21 | 0.0 | 0.0 | 0.00 | 0.00 | 0.00 | 54 | 1072.1 | |
| 20260507133153 | 21 | 0.0 | 0.0 | 0.00 | 0.00 | 0.00 | 54 | 1072.1 | |
| 20260507125144 | 22 | 0.0 | 0.0 | 0.00 | 0.00 | 0.00 | 51 | 1072.1 | |
| 20260507123134 | 20 | 0.0 | 0.0 | 0.00 | 0.00 | 0.00 | 51 | 1071.8 | |
| 20260507121126 | 20 | 0.0 | 0.0 | 0.00 | 0.00 | 0.00 | 58 | 1071.4 | |
| 20260507115119 | 20 | 0.0 | 0.0 | 0.00 | 0.00 | 0.00 | 60 | 1071.3 | |
| 20260507113113 | 19 | 0.0 | 0.0 | 0.00 | 0.00 | 0.00 | 62 | 1071.4 | |
| 20260507111108 | 20 | 0.0 | 0.0 | 0.00 | 0.00 | 0.00 | 62 | 1071.5 | |
| 20260507105102 | 19 | 0.0 | 0.0 | 0.00 | 0.00 | 0.00 | 64 | 1071.5 | |
| 20260507103056 | 19 | 0.0 | 0.0 | 0.00 | 0.00 | 0.00 | 66 | 1071.6 | |
| 20260507101052 | 19 | 0.0 | 0.0 | 0.00 | 0.00 | 0.00 | 67 | 1071.6 | |
| 20260507095045 | 18 | 0.0 | 0.0 | 0.00 | 0.00 | 0.00 | 70 | 1071.7 | |
| 20260507093037 | 18 | 0.0 | 0.0 | 0.00 | 0.00 | 0.00 | 66 | 1071.5 | |
| 20260507091030 | 18 | 0.0 | 0.0 | 0.00 | 0.00 | 0.00 | 69 | 1071.4 | |
| 20260507083019 | 18 | 0.0 | 0.0 | 0.00 | 0.00 | 0.00 | 68 | 1071.2 | |
| 20260507081015 | 17 | 0.0 | 0.0 | 0.00 | 0.00 | 0.00 | 69 | 1071.0 | |
| 20260507075010 | 16 | 0.0 | 0.0 | 0.00 | 0.00 | 0.00 | 71 | 1071.0 | |
| 20260507073004 | 15 | 0.0 | 0.0 | 0.00 | 0.00 | 0.00 | 70 | 1071.2 | |
| 20260507071000 | 14 | 0.0 | 0.0 | 0.00 | 0.00 | 0.00 | 72 | 1071.0 | |
| 20260507064954 | 13 | 0.0 | 0.0 | 0.00 | 0.00 | 0.00 | 78 | 1070.6 | |
| 20260507062949 | 12 | 0.0 | 0.0 | 0.00 | 0.00 | 0.00 | 77 | 1070.5 | |
| 20260507060943 | 11 | 0.0 | 0.0 | 0.00 | 0.00 | 0.00 | 84 | 1070.4 | |
| 20260507054938 | 11 | 0.0 | 0.0 | 0.00 | 0.00 | 0.00 | 85 | 1070.3 | |
| 20260507052932 | 10 | 0.0 | 0.0 | 0.00 | 0.00 | 0.00 | 87 | 1070.0 | |
| 20260507050927 | 10 | 0.0 | 0.0 | 0.00 | 0.00 | 0.00 | 88 | 1069.8 | |
| 20260507044922 | 10 | 0.0 | 0.0 | 0.00 | 0.00 | 0.00 | 89 | 1069.4 | |
| 20260507042918 | 10 | 0.0 | 0.0 | 0.00 | 0.00 | 0.00 | 87 | 1069.2 | |
| 20260507040911 | 10 | 0.0 | 0.0 | 0.00 | 0.00 | 0.00 | 90 | 1069.2 | |
| 20260507034906 | 10 | 0.0 | 0.0 | 0.00 | 0.00 | 0.00 | 89 | 1069.2 | |
| 20260507032901 | 10 | 0.0 | 0.0 | 0.00 | 0.00 | 0.00 | 89 | 1068.9 | |
| 20260507030857 | 10 | 0.0 | 0.0 | 0.00 | 0.00 | 0.00 | 89 | 1068.9 | |
| 20260507024850 | 11 | 0.0 | 0.0 | 0.00 | 0.00 | 0.00 | 87 | 1068.8 | |
| 20260507022845 | 11 | 0.0 | 0.0 | 0.00 | 0.00 | 0.00 | 88 | 1068.7 | |
| 20260507020840 | 11 | 0.0 | 0.0 | 0.00 | 0.00 | 0.00 | 86 | 1068.6 | |
| 20260507014835 | 11 | 0.0 | 0.0 | 0.00 | 0.00 | 0.00 | 84 | 1068.4 | |
| 20260507012830 | 11 | 0.0 | 0.0 | 0.00 | 0.00 | 0.00 | 85 | 1068.2 | |
| 20260507010824 | 11 | 0.0 | 0.0 | 0.00 | 0.00 | 0.00 | 88 | 1068.5 | |
| 20260507004819 | 12 | 0.0 | 0.0 | 0.00 | 0.00 | 0.00 | 83 | 1068.4 | |
| 20260507002815 | 12 | 0.0 | 0.0 | 0.00 | 0.00 | 0.00 | 85 | 1068.4 | |
| 20260507000808 | 12 | 0.0 | 0.0 | 0.00 | 0.00 | 0.00 | 83 | 1068.3 | |
| 20260506232755 | 12 | 0.0 | 0.0 | 0.00 | 0.00 | 0.00 | 87 | 1068.4 | |
| 20260506230749 | 13 | 0.0 | 0.0 | 0.00 | 0.00 | 0.00 | 84 | 1068.4 | |
| 20260506224742 | 13 | 0.0 | 0.0 | 0.00 | 0.00 | 0.00 | 84 | 1068.4 | |
| 20260506222737 | 13 | 0.0 | 0.0 | 0.00 | 0.00 | 0.00 | 82 | 1068.1 | |
| 20260506220729 | 13 | 0.0 | 0.0 | 0.00 | 0.00 | 0.00 | 85 | 1068.0 | |
| 20260506214723 | 14 | 0.0 | 0.0 | 0.00 | 0.00 | 0.00 | 80 | 1067.9 | |
| 20260506212717 | 14 | 0.0 | 0.0 | 0.00 | 0.00 | 0.00 | 79 | 1067.9 | |
| 20260506210712 | 13 | 0.0 | 0.0 | 0.00 | 0.00 | 0.00 | 85 | 1068.0 | |
| 20260506204706 | 14 | 0.0 | 0.0 | 0.00 | 0.00 | 0.00 | 82 | 1068.0 | |
| 20260506202701 | 14 | 0.0 | 0.0 | 0.00 | 0.00 | 0.00 | 82 | 1067.9 | |
| 20260506200656 | 15 | 0.0 | 0.0 | 0.00 | 0.00 | 0.00 | 79 | 1067.7 | |
| 20260506194652 | 15 | 0.0 | 0.0 | 0.00 | 0.00 | 0.00 | 79 | 1067.5 | |
| 20260506190641 | 17 | 0.0 | 0.0 | 0.00 | 0.00 | 0.00 | 71 | 1066.8 | |
| 20260506184636 | 17 | 0.0 | 0.0 | 0.00 | 0.00 | 0.00 | 69 | 1066.5 | |
| 20260506184547 | 17 | 0.0 | 0.0 | 0.00 | 0.00 | 0.00 | 69 | 1066.5 | |
| 20260506182541 | 18 | 0.0 | 0.0 | 0.00 | 0.00 | 0.00 | 69 | 1066.4 | |
| 20260506180535 | 18 | 0.0 | 0.0 | 0.00 | 0.00 | 0.00 | 64 | 1066.3 | |
| 20260506172525 | 20 | 0.0 | 0.0 | 0.00 | 0.00 | 0.00 | 61 | 1066.4 | |
| 20260506170518 | 20 | 0.0 | 0.0 | 0.00 | 0.00 | 0.00 | 60 | 1066.2 | |
| 20260506164513 | 22 | 0.0 | 0.0 | 0.00 | 0.00 | 0.00 | 52 | 1066.4 | |
| 20260506162509 | 22 | 0.0 | 0.0 | 0.00 | 0.00 | 0.00 | 51 | 1066.3 | |
| 20260506160503 | 21 | 0.0 | 0.0 | 0.00 | 0.00 | 0.00 | 53 | 1066.5 | |
| 20260506154457 | 22 | 0.0 | 0.0 | 0.00 | 0.00 | 0.00 | 50 | 1066.5 | |
| 20260506152451 | 22 | 0.0 | 0.0 | 0.00 | 0.00 | 0.00 | 49 | 1066.5 | |
| 20260506150446 | 23 | 0.0 | 0.0 | 0.00 | 0.00 | 0.00 | 49 | 1066.8 | |
| 20260506144440 | 23 | 0.0 | 0.0 | 0.00 | 0.00 | 0.00 | 51 | 1067.0 | |
| 20260506142435 | 21 | 0.0 | 0.0 | 0.00 | 0.00 | 0.00 | 56 | 1067.4 |